Weather History for KEVM - November, 2013

Change the Weather History Date:

Friday, November 15, 2013

  Actual Average Record
Temperature  
Mean Temperature 37 °F -  
Max Temperature 42 °F 34 °F 60 °F (2001)
Min Temperature 32 °F 19 °F -5 °F (2002)
Degree Days  
Heating Degree Days 28    
Moisture  
Dew Point 33 °F    
Average Humidity 85    
Maximum Humidity 100    
Minimum Humidity 61    
Precipitation  
Precipitation 0.00 in - - ()
Sea Level Pressure  
Sea Level Pressure 29.70 in    
Wind  
Wind Speed 4 mph (SSW)    
Max Wind Speed 12 mph    
Max Gust Speed 17 mph    
Visibility 9 miles    
Events      
Averages and records for this station are not official NWS values.
T = Trace of Precipitation, MM = Missing Value Source: NWS Daily Summary

Daily Weather History Graph

Daily Weather History Graph

Search for Another Location

Airport or City:

Trip Planner

Search our weather history database for the weather conditions in past years. The results will help you decide how hot, cold, wet, or windy it might be!

Date:

Astronomy

Nov. 15, 2013 Rise Set
Actual Time 7:15 AM CST 4:33 PM CST
Civil Twilight 6:41 AM CST 5:07 PM CST
Nautical Twilight 6:04 AM CST 5:44 PM CST
Astronomical Twilight 5:27 AM CST 6:20 PM CST
Moon 3:36 PM CST (11/15) 5:04 AM CST (11/15)
Length of Visible Light 10h 25m
Length of Day
9h 18m
Waxing Gibbous, 96% of the Moon is Illuminated
Nov 15
Waxing Gibbous
Nov 17
Full
Nov 25
Last Quarter
Dec 2
New
Dec 9
First Quarter

Hourly Weather History & Observations

Time (CST) Temp. Windchill Dew Point Humidity Pressure Visibility Wind Dir Wind Speed Gust Speed Precip Events Conditions
12:06 AM 32.0 °F - 30.2 °F 93% 29.72 in 10.0 mi Calm Calm - N/A   Overcast
12:27 AM 32.0 °F - 32.0 °F 100% 29.72 in 10.0 mi Calm Calm - N/A   Overcast
12:47 AM 32.0 °F - 32.0 °F 100% 29.72 in 10.0 mi Calm Calm - N/A   Overcast
1:06 AM 32.0 °F - 32.0 °F 100% 29.71 in 10.0 mi Calm Calm - N/A   Overcast
1:27 AM 32.0 °F - 32.0 °F 100% 29.71 in 10.0 mi Calm Calm - N/A   Overcast
1:47 AM 32.0 °F - 32.0 °F 100% 29.71 in 10.0 mi Calm Calm - N/A   Overcast
2:06 AM 32.0 °F - 32.0 °F 100% 29.71 in 10.0 mi Calm Calm - N/A   Overcast
2:27 AM 32.0 °F - 32.0 °F 100% 29.71 in 10.0 mi Calm Calm - N/A   Overcast
2:47 AM 32.0 °F - 32.0 °F 100% 29.71 in 10.0 mi Calm Calm - N/A   Overcast
3:06 AM 32.0 °F 28.7 °F 32.0 °F 100% 29.71 in 10.0 mi WSW 3.5 mph - N/A   Overcast
3:27 AM 33.8 °F 30.8 °F 32.0 °F 93% 29.71 in 10.0 mi WSW 3.5 mph - N/A   Overcast
3:47 AM 33.8 °F 30.8 °F 33.8 °F 100% 29.71 in 10.0 mi SW 3.5 mph - N/A   Overcast
4:06 AM 33.8 °F 29.6 °F 32.0 °F 93% 29.72 in 10.0 mi SW 4.6 mph - N/A   Overcast
4:27 AM 33.8 °F 28.6 °F 32.0 °F 93% 29.73 in 10.0 mi WSW 5.8 mph - N/A   Overcast
4:46 AM 35.6 °F 32.8 °F 35.6 °F 100% 29.73 in 10.0 mi WSW 3.5 mph - N/A   Overcast
5:07 AM 35.6 °F 32.8 °F 35.6 °F 100% 29.73 in 10.0 mi SW 3.5 mph - N/A   Overcast
5:27 AM 33.8 °F 30.8 °F 33.8 °F 100% 29.73 in 10.0 mi WSW 3.5 mph - N/A   Overcast
5:47 AM 33.8 °F - 32.0 °F 93% 29.73 in 10.0 mi Calm Calm - N/A   Overcast
6:07 AM 33.8 °F - 32.0 °F 93% 29.74 in 10.0 mi Calm Calm - N/A   Mostly Cloudy
6:27 AM 33.8 °F - 32.0 °F 93% 29.74 in 10.0 mi Calm Calm - N/A   Overcast
6:47 AM 32.0 °F 27.5 °F 32.0 °F 100% 29.75 in 7.0 mi SW 4.6 mph - N/A   Overcast
7:07 AM 33.8 °F 29.6 °F 33.8 °F 100% 29.76 in 10.0 mi SW 4.6 mph - N/A   Overcast
7:26 AM 33.8 °F 30.8 °F 33.8 °F 100% 29.76 in 10.0 mi SW 3.5 mph - N/A   Overcast
7:47 AM 33.8 °F - 33.8 °F 100% 29.76 in 7.0 mi Calm Calm - N/A   Overcast
8:07 AM 33.8 °F 30.8 °F 33.8 °F 100% 29.76 in 7.0 mi SSW 3.5 mph - N/A   Overcast
8:26 AM 33.8 °F 29.6 °F 33.8 °F 100% 29.76 in 7.0 mi SSW 4.6 mph - N/A   Mostly Cloudy
8:47 AM 33.8 °F 28.6 °F 33.8 °F 100% 29.76 in 7.0 mi SW 5.8 mph - N/A   Mostly Cloudy
9:07 AM 35.6 °F 30.7 °F 33.8 °F 93% 29.76 in 5.0 mi SW 5.8 mph - N/A   Overcast
9:26 AM 35.6 °F 29.9 °F 33.8 °F 93% 29.76 in 4.0 mi SW 6.9 mph - N/A   Overcast
9:47 AM 35.6 °F 30.7 °F 33.8 °F 93% 29.76 in 5.0 mi SW 5.8 mph - N/A   Overcast
10:07 AM 35.6 °F 29.2 °F 35.6 °F 100% 29.77 in 5.0 mi SW 8.1 mph - N/A   Overcast
10:27 AM 33.8 °F 27.7 °F 32.0 °F 93% 29.77 in 5.0 mi SW 6.9 mph - N/A   Overcast
10:46 AM 35.6 °F 29.2 °F 33.8 °F 93% 29.77 in 5.0 mi SW 8.1 mph - N/A   Overcast
11:07 AM 35.6 °F 30.7 °F 33.8 °F 93% 29.77 in 7.0 mi SW 5.8 mph - N/A   Overcast
11:27 AM 35.6 °F 29.2 °F 33.8 °F 93% 29.76 in 10.0 mi South 8.1 mph - N/A   Overcast
11:46 AM 35.6 °F 29.9 °F 33.8 °F 93% 29.75 in 10.0 mi South 6.9 mph - N/A   Overcast
12:07 PM 37.4 °F 32.8 °F 33.8 °F 87% 29.74 in 10.0 mi SSW 5.8 mph - N/A   Mostly Cloudy
12:26 PM 39.2 °F 35.0 °F 32.0 °F 75% 29.73 in 10.0 mi South 5.8 mph - N/A   Scattered Clouds
12:47 PM 39.2 °F 35.0 °F 32.0 °F 75% 29.72 in 10.0 mi South 5.8 mph - N/A   Clear
1:06 PM 42.8 °F 39.3 °F 32.0 °F 66% 29.71 in 10.0 mi South 5.8 mph - N/A   Clear
1:27 PM 42.8 °F 37.5 °F 32.0 °F 66% 29.71 in 10.0 mi SW 9.2 mph - N/A   Clear
1:46 PM 42.8 °F 38.0 °F 30.2 °F 61% 29.70 in 10.0 mi South 8.1 mph - N/A   Clear
2:07 PM 42.8 °F 36.6 °F 30.2 °F 61% 29.70 in 10.0 mi SSW 11.5 mph - N/A   Clear
2:27 PM 42.8 °F 37.0 °F 32.0 °F 66% 29.69 in 10.0 mi SSW 10.4 mph - N/A   Clear
2:46 PM 42.8 °F 36.6 °F 30.2 °F 61% 29.68 in 10.0 mi SSW 11.5 mph - N/A   Clear
3:07 PM 42.8 °F 38.6 °F 30.2 °F 61% 29.68 in 10.0 mi SSW 6.9 mph - N/A   Clear
3:27 PM 42.8 °F 41.1 °F 30.2 °F 61% 29.67 in 10.0 mi South 3.5 mph - N/A   Clear
3:46 PM 42.8 °F 39.3 °F 30.2 °F 61% 29.66 in 10.0 mi SSE 5.8 mph - N/A   Clear
4:07 PM 42.8 °F 41.1 °F 32.0 °F 66% 29.66 in 10.0 mi South 3.5 mph - N/A   Clear
4:26 PM 41.0 °F 39.0 °F 30.2 °F 65% 29.66 in 10.0 mi SSE 3.5 mph - N/A   Clear
4:47 PM 37.4 °F - 30.2 °F 75% 29.65 in 10.0 mi Calm Calm - N/A   Clear
5:07 PM 33.8 °F 30.8 °F 28.4 °F 81% 29.65 in 10.0 mi SE 3.5 mph - N/A   Clear
5:26 PM 35.6 °F - 32.0 °F 87% 29.65 in 10.0 mi Calm Calm - N/A   Clear
5:47 PM 35.6 °F - 30.2 °F 81% 29.65 in 10.0 mi Calm Calm - N/A   Clear
6:07 PM 35.6 °F 31.7 °F 32.0 °F 87% 29.65 in 10.0 mi South 4.6 mph - N/A   Clear
6:26 PM 35.6 °F 30.7 °F 32.0 °F 87% 29.65 in 10.0 mi SSE 5.8 mph - N/A   Clear
6:47 PM 37.4 °F 32.1 °F 32.0 °F 81% 29.64 in 10.0 mi SSE 6.9 mph - N/A   Clear
7:06 PM 37.4 °F 32.1 °F 32.0 °F 81% 29.64 in 10.0 mi South 6.9 mph - N/A   Clear
7:27 PM 39.2 °F 33.6 °F 32.0 °F 75% 29.64 in 10.0 mi South 8.1 mph - N/A   Scattered Clouds
7:47 PM 41.0 °F 36.4 °F 33.8 °F 76% 29.64 in 10.0 mi South 6.9 mph - N/A   Mostly Cloudy
8:07 PM 42.8 °F 38.6 °F 33.8 °F 70% 29.64 in 10.0 mi South 6.9 mph - N/A   Mostly Cloudy
8:26 PM 41.0 °F 37.1 °F 32.0 °F 70% 29.64 in 10.0 mi South 5.8 mph - N/A   Scattered Clouds
8:47 PM 42.8 °F 38.0 °F 33.8 °F 70% 29.63 in 10.0 mi South 8.1 mph - N/A   Clear
9:07 PM 42.8 °F 38.0 °F 33.8 °F 70% 29.63 in 10.0 mi South 8.1 mph - N/A   Scattered Clouds
9:27 PM 42.8 °F 37.0 °F 33.8 °F 70% 29.62 in 10.0 mi South 10.4 mph - N/A   Mostly Cloudy
9:47 PM 42.8 °F 37.0 °F 33.8 °F 70% 29.63 in 10.0 mi South 10.4 mph - N/A   Mostly Cloudy
10:07 PM 42.8 °F 37.0 °F 33.8 °F 70% 29.62 in 10.0 mi South 10.4 mph - N/A   Scattered Clouds
10:27 PM 42.8 °F 37.5 °F 33.8 °F 70% 29.61 in 10.0 mi South 9.2 mph - N/A   Clear
10:47 PM 42.8 °F 37.5 °F 33.8 °F 70% 29.61 in 10.0 mi South 9.2 mph - N/A   Clear
11:07 PM 42.8 °F 37.0 °F 35.6 °F 76% 29.61 in 10.0 mi South 10.4 mph - N/A   Clear
11:26 PM 42.8 °F 37.5 °F 35.6 °F 76% 29.60 in 10.0 mi South 9.2 mph 17.3 mph N/A   Clear
11:47 PM 42.8 °F 37.5 °F 35.6 °F 76% 29.60 in 10.0 mi South 9.2 mph - N/A   Clear